METEOR 2-6 DEB, 31406

Orbit data source: Space-Track

METEOR 2-6 DEB, 31406 is space debris in LEO originally from a launch on Tue, 09 Sep 1980 UTC launched from the Plesetsk Missile And Space Complex (PKMTR). Debris objects in space refer to the collection of defunct objects orbiting the Earth. Examples of debris include non-operational satellites, rocket bodies, and fragments generated from explosions, collisions, or faulty payload assembly.

Loading next visibility...
Identifier
31406, 1980-073H
Orbit
LEO
Country
Flag of CISCIS
Related business
Manufacturer
Unknown
Mission
Spacecraft
Bus & Motor
Unknown
Mass
Unknown
Launch date (UTC)
1980-09-09 (45 years ago)
Launch vehicle
Unknown
Launch site
Plesetsk Missile And Space Complex (PKMTR)
Object type
Payload
Rocket body
Debris
Shape & HBR
Unknown
Radar Cross Section
Small (<0.1 m²)

Expand to show TLE details & history
Last TLE update: 3 days ago

TLE from 3 days ago
0 METEOR 2-6 DEB
1 31406U 80073H   25239.34642270  .00002432  00000-0  70231-3 0  9998
2 31406  81.2131 263.9786 0035750 316.3355  43.5007 14.44023761 65247
Epoch: 2025-08-27T08:18Z
TLE epoch observation values (Epoch: 2025-08-27T08:18:50.921Z)
Latitude
0.00002°
Longitude
163.44134°
Altitude
729.747 km
Speed
7.5 km/s
True Right ascension
17h 35m 54s
True Declination
0° 00' 00"
Sunlit
Object was in daylight at epoch
Visualization orbit readout
Latitude
Unknown
Longitude
Unknown
Altitude
Unknown
Speed
Unknown
Apparent Right ascension
Unknown
Apparent Declination
Unknown
Sunlit
N/A
Visualization observer readout
Local Sidereal Time
07:44:58
Azimuth
Unknown
Elevation
Unknown
Doppler factor
Unknown
Orbital elements
Apogee altitude
767.821 km
Perigee altitude
716.909 km
Semi-major axis
7,120.502 km
Eccentricity
0.00358
Inclination
81.2131°
RAAN
263.9786°
Arg. of periapsis
316.3355°
True anomaly
43.78361°
Mean anomaly
43.5007°
Eccentric anomaly
43.64207°
Mean motion
3.61225 °/min
Orbital period
99.66 mins
BSTAR
0.00070231
Loading maneuver chart data...
Computing Atmospheric mass density...
Loading historical data...
Loading historical data...
Loading historical data...
Loading historical data...
Loading historical data...
Loading historical data...
Loading historical data...

Documentation

Showing up to 5 results
|